STARLINK-30519, 57985

Orbit data source: Space-Track

STARLINK-30519, 57985 is a payload satellite owned by SpaceX/Seattle (US) in LEO that was launched on Sat, 30 Sep 2023 UTC via an FALCON 9 launch vehicle from the Air Force Eastern Test Range (AFETR). Payload-class satellites include a variety of spacecraft equipped with specific instruments for various scientific and technological missions. These include communications satellites like Starlink; space stations such as the ISS; scientific satellites like the Hubble; Earth observation satellites from companies like Planet Labs, Umbra, and HawkEye 360; GPS; miniature CubeSats for education and research; and military/defense satellites.

Loading next visibility...
Identifier
57985, 2023-151X
Orbit
LEO
Country
Flag of USUS
Related business
Manufacturer
SpaceX/Seattle
Mission
Operational Commercial Communications
Bus & Motor
STARLINK V2M, Unknown motor
Mass
730 kg wet, ~700 kg dry
Launch date (UTC)
2023-09-30 (3 years ago)
Launch vehicle
FALCON 9
Launch site
Air Force Eastern Test Range (AFETR)
Object type
Payload
Rocket body
Debris
Shape & HBR
Box + 2 Pan, 17.7 m
Radar Cross Section
33.884 m², Large (>1 m²)

Expand to show TLE details & history
Last TLE update: 1 day ago

TLE from 1 day ago
0 STARLINK-30519
1 57985U 23151X   26175.08939702 -.00000465  00000-0 -73713-5 0  9998
2 57985  43.0036 109.9785 0001584 260.3165  99.7508 15.27579293151805
Epoch: 2026-06-24T02:08Z
TLE epoch observation values (Epoch: 2026-06-24T02:08:43.902Z)
Latitude
-0.00001°
Longitude
165.54395°
Altitude
483.011 km
Speed
7.626 km/s
True Right ascension
07h 19m 54s
True Declination
0° 00' 00"
Sunlit
Object was in daylight at epoch
Visualization orbit readout
Latitude
Unknown
Longitude
Unknown
Altitude
Unknown
Speed
Unknown
Apparent Right ascension
Unknown
Apparent Declination
Unknown
Sunlit
N/A
Visualization observer readout
Local Sidereal Time
15:06:16
Azimuth
Unknown
Elevation
Unknown
Doppler factor
Unknown
Orbital elements
Apogee altitude
486.083 km
Perigee altitude
483.909 km
Semi-major axis
6,863.133 km
Eccentricity
0.00016
Inclination
43.0036°
RAAN
109.9785°
Arg. of periapsis
260.3165°
True anomaly
99.76869°
Mean anomaly
99.7508°
Eccentric anomaly
99.75974°
Mean motion
3.81733 °/min
Orbital period
94.31 mins
BSTAR
-0.0000073713
Loading maneuver chart data...
Computing Atmospheric mass density...
Loading historical data...
Loading historical data...
Loading historical data...
Loading historical data...
Loading historical data...
Loading historical data...
Loading historical data...

Documentation

Showing up to 5 results
|